"Pseudo-MPEC" for P10OvCU

Created 2019 Jun 20 19:07:23 UT using Find_Orb

Click here for an explanation of pseudo-MPECs

 
 Astrometry: 
     P10OvCU  C2019 06 01N;au6+%NS`cOcwo\BmUju_CwZnj_0AstrometryhW==Cjp).yG+nF51
     P10OvCU  C2019 06 01]Mb]\,XvO0Vredacted;DclickTp.p84NUPExu;\)o)h=f;Y#Qe\F51
     P10OvCU  C2019 06 01MoF^9TGpl6herex!@C;9\forxbe@%+59.gXDnexplanationMjR@F51
     P10OvCU  C2019 06 01j`B;RX9Tx7.nPDFlcgKndCC!8JkDE6+AQ7yjEQ[-y1QW:A)bwm?uF51
     P10OvCU  C2019 06 02.44827 21 44 54.63 +07 54 35.9    ~62Bb       VNEOCPV06
     P10OvCU  C2019 06 02.45350 21 44 54.65 +07 54 37.7    ~62Bb       VNEOCPV06
     P10OvCU  C2019 06 02.45872 21 44 54.65 +07 54 39.1    ~62Bb       VNEOCPV06
     P10OvCU  C2019 06 02.46395 21 44 54.73 +07 54 40.9    ~62Bb 21.8 GVNEOCPV06

Station data:
(F51) Pan-STARRS 1, Haleakala  (N20.707235 W156.255910)  US/Hawaii.
   Observers N. Primak, A. Schultz, S. Watters, J. Thiel, T. Goggia. Measurer
   PS1 Science Consortium. 1.8-m Ritchey-Chrétien + CCD.
(V06) Catalina Sky Survey-Kuiper  (N32.416847 W110.732550)  US/Arizona.
   Observers T. A. Pruyne, B. M. Africano, E. J. Christensen, G. A. Farneth,
   D. C. Fuls, A. R. Gibbs, A. D. Grauer, H. Groeller, J. A. Johnson, R. A.
   Kowalski, S. M. Larson, G. J. Leonard, R. L. Seaman, F. C. Shelly. 1.55-m
   reflector + CCD.

Orbital elements:  P10OvCU
   Perihelion 2021 Apr 6.348985 +/- 431 TT =  8:22:32 (JD 2459310.848985)
Epoch 2019 Jun  2.0 TT = JDT 2458636.5   Earth MOID: 0.6584   AutoNEOCP
M 227.65699823 +/- 100              (J2000 ecliptic)
n   0.19625298 +/- 0.24             Peri.  269.14376 +/- 70
a   2.93263851 +/- 2.39             Node   206.96437 +/- 45
e   0.4907635 +/- 0.214             Incl.   19.80535 +/- 17
P   5.02                   H 15.3   G  0.15   U 11.8  SR
q 1.49340654 +/- 1.95    Q 4.37187048 +/- 54.1
From 8 observations 2019 June 1-2 (21.7 hr); mean residual 0".17
Residuals in arcseconds: 
190601 F51  .09-  .02+    190601 F51  .16+  .11-    190602 V06  .43-  .07-    
190601 F51  .10-  .13+    190602 V06  .10+  .18-    190602 V06  .34+  .18+    
190601 F51  .04+  .05-    190602 V06  .02-  .07+    

Ephemerides (geocentric):
Date (UTC) HH   RA              Dec         delta   r     elong  mag " sig PA
---- -- -- --  -------------   -----------  ------ ------ -----  --- ---- ---
2019 06 20 19  21 44 15.472   +09 12 22.23  3.5721 4.1094 115.2 21.9 1774 161
2019 06 20 20  21 44 15.031   +09 12 30.84  3.5715 4.1093 115.3 21.9 1783 161
2019 06 20 21  21 44 14.588   +09 12 39.44  3.5709 4.1092 115.3 21.9 1791 161
2019 06 20 22  21 44 14.143   +09 12 48.04  3.5703 4.1091 115.3 21.9 1800 161
2019 06 20 23  21 44 13.697   +09 12 56.62  3.5696 4.1091 115.4 21.9 1809 161
2019 06 21 00  21 44 13.249   +09 13 05.18  3.5690 4.1090 115.4 21.9 1818 161
2019 06 21 01  21 44 12.799   +09 13 13.74  3.5684 4.1089 115.5 21.9 1827 161
2019 06 21 02  21 44 12.348   +09 13 22.29  3.5678 4.1088 115.5 21.9 1836 161
2019 06 21 03  21 44 11.895   +09 13 30.83  3.5672 4.1087 115.5 21.9 1845 161
2019 06 21 04  21 44 11.441   +09 13 39.36  3.5666 4.1086 115.6 21.9 1854 161
2019 06 21 05  21 44 10.985   +09 13 47.88  3.5660 4.1086 115.6 21.9 1862 161
2019 06 21 06  21 44 10.527   +09 13 56.38  3.5654 4.1085 115.6 21.9 1871 161
2019 06 21 07  21 44 10.068   +09 14 04.88  3.5648 4.1084 115.7 21.9 1881 161
2019 06 21 08  21 44 09.607   +09 14 13.37  3.5641 4.1083 115.7 21.9 1890 161
2019 06 21 09  21 44 09.144   +09 14 21.84  3.5635 4.1082 115.7 21.9 1899 161
2019 06 21 10  21 44 08.680   +09 14 30.31  3.5629 4.1081 115.8 21.9 1908 161
2019 06 21 11  21 44 08.214   +09 14 38.76  3.5623 4.1080 115.8 21.9 1917 161
2019 06 21 12  21 44 07.746   +09 14 47.21  3.5617 4.1080 115.9 21.9 1926 161
2019 06 21 13  21 44 07.277   +09 14 55.64  3.5611 4.1079 115.9 21.9 1935 161
2019 06 21 14  21 44 06.807   +09 15 04.06  3.5605 4.1078 115.9 21.9 1945 161
2019 06 21 15  21 44 06.334   +09 15 12.48  3.5599 4.1077 116.0 21.9 1954 161
2019 06 21 16  21 44 05.860   +09 15 20.88  3.5593 4.1076 116.0 21.9 1963 161
2019 06 21 17  21 44 05.384   +09 15 29.27  3.5587 4.1075 116.0 21.9 1972 161
2019 06 21 18  21 44 04.907   +09 15 37.65  3.5580 4.1075 116.1 21.9 1982 161
2019 06 21 19  21 44 04.428   +09 15 46.02  3.5574 4.1074 116.1 21.9 1991 161
2019 06 21 20  21 44 03.948   +09 15 54.38  3.5568 4.1073 116.1 21.9 2000 161
2019 06 21 21  21 44 03.466   +09 16 02.73  3.5562 4.1072 116.2 21.9 2010 161
2019 06 21 22  21 44 02.982   +09 16 11.07  3.5556 4.1071 116.2 21.9 2019 161
2019 06 21 23  21 44 02.496   +09 16 19.39  3.5550 4.1070 116.3 21.9 2029 161
2019 06 22 00  21 44 02.009   +09 16 27.71  3.5544 4.1069 116.3 21.9 2038 161
2019 06 22 01  21 44 01.520   +09 16 36.02  3.5538 4.1069 116.3 21.9 2048 161
2019 06 22 02  21 44 01.030   +09 16 44.31  3.5532 4.1068 116.4 21.9 2057 161
2019 06 22 03  21 44 00.538   +09 16 52.60  3.5526 4.1067 116.4 21.9 2067 161
2019 06 22 04  21 44 00.045   +09 17 00.87  3.5520 4.1066 116.4 21.9 2076 161
2019 06 22 05  21 43 59.549   +09 17 09.14  3.5514 4.1065 116.5 21.9 2086 161
2019 06 22 06  21 43 59.052   +09 17 17.39  3.5508 4.1064 116.5 21.9 2096 161
2019 06 22 07  21 43 58.554   +09 17 25.63  3.5502 4.1063 116.6 21.9 2105 161
2019 06 22 08  21 43 58.054   +09 17 33.86  3.5495 4.1063 116.6 21.9 2115 161
2019 06 22 09  21 43 57.552   +09 17 42.09  3.5489 4.1062 116.6 21.9 2125 161
2019 06 22 10  21 43 57.049   +09 17 50.30  3.5483 4.1061 116.7 21.9 2135 161
2019 06 22 11  21 43 56.543   +09 17 58.50  3.5477 4.1060 116.7 21.9 2145 161
2019 06 22 12  21 43 56.037   +09 18 06.68  3.5471 4.1059 116.7 21.9 2154 161
2019 06 22 13  21 43 55.528   +09 18 14.86  3.5465 4.1058 116.8 21.9 2164 161
2019 06 22 14  21 43 55.019   +09 18 23.03  3.5459 4.1058 116.8 21.9 2174 161
2019 06 22 15  21 43 54.507   +09 18 31.19  3.5453 4.1057 116.8 21.9 2184 161
2019 06 22 16  21 43 53.994   +09 18 39.33  3.5447 4.1056 116.9 21.9 2194 161
2019 06 22 17  21 43 53.479   +09 18 47.47  3.5441 4.1055 116.9 21.9 2204 161
2019 06 22 18  21 43 52.962   +09 18 55.59  3.5435 4.1054 117.0 21.9 2214 161